Portada
METAR-TAF:

METAR-TAF

Aeroports :

Illa Lavan, Iran

latitud: 26-48-37N, longitud: 53-21-22E, altitud: 23 m

Observació

L'informe es va fer fa 9 hores i 17 minuts, a les 15:00 UTC
Vent 4 kt del Nord-Oest
Temperatura 24°C
Humitat 83%
Pressió 1012 hPa
Visibilitat: 7000 m

METAR: OIBV 041500Z 31004KT 7000 NSC 24/21 Q1012

Hora: 03:47 (00:17 UTC)


TAF: manca

Observacions i pronòstics meteorològics de més de 4000 aeroports (METAR i TAF).

Les estacions disponibles són els punts grocs i vermells al mapa.

Posi el ratolí al punt desitjat per veure el nom de l'estació.

Feu clic per veure les observacions i els pronòstics meteorològics.

Per canviar el mapa: feu clic els botons verds amb una creu de color negre per apropar; al botó verd amb un guió per allunyar la imatge; o en les fletxes verdes per a mapes adjacents.


METAR-TAF: